Montpelier, VT

1:26 AM EST on February 25, 2017 (GMT -0500)
Knapp State

Weather History for KMPV - March, 2015

Change the Weather History Date:

Sunday, March 22, 2015

  Actual Average Record
Temperature  
Mean Temperature 12 °F 31 °F  
Max Temperature 18 °F 41 °F 78 °F (2012)
Min Temperature 6 °F 21 °F 2 °F (1986)
Degree Days  
Heating Degree Days 53 34  
Month to date heating degree days 967 834  
Since 1 July heating degree days 7305 6742  
Cooling Degree Days 0 0  
Month to date cooling degree days 0 0  
Year to date cooling degree days 0 0  
Moisture  
Dew Point -3 °F    
Average Humidity 55    
Maximum Humidity 67    
Minimum Humidity 42    
Precipitation  
Precipitation T in 0.09 in 0.81 in (1999)
Month to date precipitation 0.36 1.66  
Year to date precipitation 3.23 6.15  
Sea Level Pressure  
Sea Level Pressure 30.06 in    
Wind  
Wind Speed 15 mph (NW)    
Max Wind Speed 28 mph    
Max Gust Speed 40 mph    
Visibility 10 miles    
Events Snow    
T = Trace of Precipitation, MM = Missing Value Source: NWS Daily Summary

Daily Weather History Graph

Daily Weather History Graph

Search for Another Location

Airport or City:

Trip Planner

Search our weather history database for the weather conditions in past years. The results will help you decide how hot, cold, wet, or windy it might be!

Date:

Astronomy

Mar. 22, 2015 Rise Set
Actual Time 6:50 AM EDT 7:04 PM EDT
Civil Twilight 6:21 AM EDT 7:33 PM EDT
Nautical Twilight 5:47 AM EDT 8:07 PM EDT
Astronomical Twilight 5:12 AM EDT 8:42 PM EDT
Moon 8:09 AM EDT (3/22) 10:07 PM EDT (3/22)
Length of Visible Light 13h 12m
Length of Day
12h 14m
Waxing Crescent, 7% of the Moon is Illuminated
Mar 22
Waxing Crescent
Mar 27
First Quarter
Apr 4
Full
Apr 11
Last Quarter
Apr 18
New

Hourly Weather History & Observations

Time (EDT) Temp. Windchill Dew Point Humidity Pressure Visibility Wind Dir Wind Speed Gust Speed Precip Events Conditions
12:51 AM 19.0 °F 2.0 °F 10.9 °F 71% 29.95 in 10.0 mi WNW 23.0 mph 34.5 mph 0.00 in   Overcast
1:35 AM 17.1 °F 0.6 °F 7.0 °F 65% 29.90 in 10.0 mi NW 19.6 mph 36.8 mph N/A   Mostly Cloudy
1:51 AM 17.1 °F 2.0 °F 7.0 °F 65% 29.96 in 10.0 mi NW 16.1 mph 26.5 mph N/A   Overcast
2:51 AM 14.0 °F -2.5 °F 1.9 °F 59% 29.99 in 10.0 mi NW 17.3 mph 32.2 mph 0.00 in   Partly Cloudy
3:51 AM 12.0 °F -3.4 °F -0.0 °F 59% 30.00 in 10.0 mi NW 13.8 mph 20.7 mph N/A   Partly Cloudy
4:51 AM 10.9 °F -5.4 °F -0.0 °F 61% 30.01 in 10.0 mi WNW 15.0 mph 25.3 mph N/A   Mostly Cloudy
5:51 AM 10.0 °F -5.9 °F -0.9 °F 61% 30.03 in 10.0 mi NW 13.8 mph 23.0 mph N/A   Mostly Cloudy
6:51 AM 9.0 °F -5.9 °F -2.0 °F 61% 30.04 in 10.0 mi NW 11.5 mph 21.9 mph N/A   Overcast
7:51 AM 8.1 °F -7.0 °F -2.0 °F 64% 30.05 in 10.0 mi NW 11.5 mph 24.2 mph N/A   Overcast
8:51 AM 6.1 °F -14.3 °F -4.0 °F 63% 30.08 in 8.0 mi WNW 20.7 mph 31.1 mph N/A   Overcast
9:51 AM 6.1 °F -12.2 °F -5.1 °F 60% 30.10 in 6.0 mi NW 16.1 mph 36.8 mph 0.00 in Snow Blowing Snow
10:51 AM 6.1 °F -14.3 °F -6.0 °F 58% 30.11 in 9.0 mi WNW 20.7 mph 33.4 mph 0.00 in   Overcast
11:51 AM 7.0 °F -14.9 °F -9.9 °F 46% 30.11 in 10.0 mi NW 25.3 mph 33.4 mph N/A   Clear
12:51 PM 8.1 °F -10.2 °F -9.0 °F 46% 30.11 in 10.0 mi WNW 17.3 mph 28.8 mph N/A   Clear
1:51 PM 10.0 °F -5.9 °F -8.0 °F 44% 30.09 in 10.0 mi NW 13.8 mph 31.1 mph N/A   Clear
2:51 PM 10.9 °F -3.4 °F -8.0 °F 42% 30.07 in 10.0 mi NW 11.5 mph 21.9 mph N/A   Scattered Clouds
3:51 PM 12.0 °F -4.5 °F -7.1 °F 42% 30.06 in 10.0 mi NW 16.1 mph 24.2 mph N/A   Clear
4:51 PM 12.9 °F -3.4 °F -8.0 °F 39% 30.06 in 10.0 mi NW 16.1 mph 25.3 mph N/A   Clear
5:51 PM 12.0 °F -3.4 °F -7.1 °F 42% 30.07 in 10.0 mi NW 13.8 mph 26.5 mph N/A   Clear
6:51 PM 10.9 °F -7.0 °F -8.0 °F 42% 30.09 in 10.0 mi NW 18.4 mph 26.5 mph N/A   Mostly Cloudy
7:51 PM 10.9 °F -3.4 °F -7.1 °F 44% 30.11 in 10.0 mi NW 11.5 mph 21.9 mph N/A   Overcast
8:51 PM 10.0 °F -5.2 °F -7.1 °F 46% 30.12 in 10.0 mi NW 12.7 mph - N/A   Overcast
9:51 PM 10.0 °F -5.2 °F -4.0 °F 53% 30.12 in 10.0 mi WNW 12.7 mph 19.6 mph N/A   Overcast
10:51 PM 10.0 °F -1.9 °F -0.0 °F 64% 30.12 in 10.0 mi West 8.1 mph - 0.00 in   Overcast
11:51 PM 10.0 °F -4.5 °F -0.0 °F 64% 30.12 in 10.0 mi NW 11.5 mph 17.3 mph N/A   Overcast